Oak Harbor, WA

8:02 PM PST on December 08, 2016 (GMT -0800)
Whidbey Island Naval Air Station

Weather History for KNUW - December, 2012

Change the Weather History Date:

Friday, December 7, 2012

  Actual Average Record
Temperature  
Mean Temperature 42 °F -  
Max Temperature 45 °F 45 °F 55 °F (2014)
Min Temperature 37 °F 36 °F 17 °F (2013)
Degree Days  
Heating Degree Days 23    
Moisture  
Dew Point 36 °F    
Average Humidity 77    
Maximum Humidity 89    
Minimum Humidity 60    
Precipitation  
Precipitation 0.18 in - - ()
Sea Level Pressure  
Sea Level Pressure 30.02 in    
Wind  
Wind Speed 15 mph (WSW)    
Max Wind Speed 32 mph    
Max Gust Speed 41 mph    
Visibility 9 miles    
Events Rain    
Averages and records for this station are not official NWS values.
T = Trace of Precipitation, MM = Missing Value Source: NWS Daily Summary

Daily Weather History Graph

Daily Weather History Graph

Search for Another Location

Airport or City:

Trip Planner

Search our weather history database for the weather conditions in past years. The results will help you decide how hot, cold, wet, or windy it might be!

Date:

Astronomy

Dec. 07, 2012 Rise Set
Actual Time 7:48 AM PST 4:16 PM PST
Civil Twilight 7:12 AM PST 4:52 PM PST
Nautical Twilight 6:32 AM PST 5:32 PM PST
Astronomical Twilight 5:54 AM PST 6:10 PM PST
Moon 12:47 AM PST (12/7) 12:39 PM PST (12/7)
Length of Visible Light 9h 40m
Length of Day
8h 27m
Last Quarter, 37% of the Moon is Illuminated
Dec 7
Last Quarter
Dec 13
New
Dec 19
First Quarter
Dec 28
Full
Jan 4
Last Quarter

Hourly Weather History & Observations

Time (PST) Temp. Windchill Dew Point Humidity Pressure Visibility Wind Dir Wind Speed Gust Speed Precip Events Conditions
12:56 AM 42.1 °F 34.5 °F 37.9 °F 85% 30.04 in 7.0 mi SE 15.0 mph - N/A   Mostly Cloudy
1:31 AM 42.8 °F 34.3 °F 39.2 °F 87% 30.02 in 7.0 mi SSE 19.6 mph 28.8 mph 0.00 in Rain Light Rain
1:56 AM 43.0 °F 34.8 °F 39.0 °F 86% 30.04 in 7.0 mi SSE 18.4 mph 23.0 mph 0.00 in   Overcast
2:19 AM 42.8 °F 35.4 °F 37.4 °F 81% 30.03 in 7.0 mi SSE 15.0 mph 26.5 mph 0.01 in Rain Light Rain
2:56 AM 41.0 °F 33.9 °F 37.9 °F 89% 30.04 in 10.0 mi SSE 12.7 mph - 0.01 in   Overcast
3:44 AM 41.0 °F 34.7 °F 37.4 °F 87% 30.00 in 10.0 mi SSE 10.4 mph - 0.00 in Rain Light Rain
3:56 AM 42.1 °F 37.1 °F 37.9 °F 85% 30.01 in 10.0 mi SSE 8.1 mph - 0.00 in   Overcast
4:56 AM 42.1 °F 36.1 °F 39.0 °F 89% 30.01 in 10.0 mi SSE 10.4 mph - 0.00 in Rain Light Rain
5:56 AM 43.0 °F 38.2 °F 39.0 °F 86% 29.99 in 6.0 mi SSE 8.1 mph - 0.02 in Rain Light Rain
6:56 AM 43.0 °F 41.3 °F 39.0 °F 86% 29.98 in 5.0 mi South 3.5 mph - 0.02 in Rain Light Rain
7:48 AM 42.8 °F 39.3 °F 39.2 °F 87% 29.96 in 5.0 mi South 5.8 mph - 0.06 in Rain Light Rain
7:56 AM 42.1 °F 38.4 °F 39.0 °F 89% 29.96 in 5.0 mi South 5.8 mph - 0.07 in Rain Light Rain
8:56 AM 42.1 °F 37.1 °F 39.0 °F 89% 29.98 in 5.0 mi SSW 8.1 mph - 0.04 in Rain Light Rain
9:11 AM 44.6 °F 38.8 °F 39.2 °F 81% 29.96 in 8.0 mi WSW 11.5 mph - 0.01 in   Overcast
9:43 AM 44.6 °F 36.4 °F 39.2 °F 81% 29.95 in 9.0 mi WSW 20.7 mph 25.3 mph 0.01 in   Overcast
9:56 AM 44.1 °F 37.1 °F 39.0 °F 82% 29.96 in 10.0 mi WSW 15.0 mph 21.9 mph 0.01 in   Mostly Cloudy
10:20 AM 44.6 °F 35.3 °F 37.4 °F 76% 29.96 in 10.0 mi West 26.5 mph 33.4 mph 0.00 in   Overcast
10:56 AM 45.0 °F 35.4 °F 37.9 °F 76% 29.99 in 10.0 mi West 28.8 mph 35.7 mph 0.00 in Rain Light Rain
11:20 AM 44.6 °F 35.9 °F 37.4 °F 76% 29.96 in 10.0 mi West 23.0 mph 31.1 mph 0.00 in   Overcast
11:34 AM 44.6 °F 35.5 °F 37.4 °F 76% 29.96 in 8.0 mi West 25.3 mph 32.2 mph 0.00 in Rain Light Rain
11:48 AM 44.6 °F 35.9 °F 37.4 °F 76% 29.95 in 10.0 mi West 23.0 mph 35.7 mph 0.00 in   Overcast
11:56 AM 45.0 °F 35.6 °F 37.9 °F 76% 29.96 in 10.0 mi WSW 27.6 mph 35.7 mph 0.00 in   Overcast
12:56 PM 45.0 °F 35.2 °F 34.0 °F 65% 29.99 in 10.0 mi West 29.9 mph 41.4 mph N/A   Mostly Cloudy
1:56 PM 44.1 °F 33.7 °F 34.0 °F 68% 30.01 in 10.0 mi West 32.2 mph 41.4 mph N/A   Mostly Cloudy
2:56 PM 44.1 °F 35.7 °F 33.1 °F 65% 30.04 in 10.0 mi WNW 20.7 mph 27.6 mph N/A   Overcast
3:11 PM 39.2 °F 33.6 °F 33.8 °F 81% 30.03 in 8.0 mi NNW 8.1 mph - 0.01 in Rain Light Rain
3:43 PM 39.2 °F 35.0 °F 33.8 °F 81% 30.04 in 10.0 mi NNW 5.8 mph - 0.01 in   Mostly Cloudy
3:56 PM 39.0 °F 34.8 °F 34.0 °F 82% 30.06 in 10.0 mi North 5.8 mph - 0.01 in   Mostly Cloudy
4:56 PM 43.0 °F 35.7 °F 32.0 °F 65% 30.06 in 10.0 mi WNW 15.0 mph - N/A   Mostly Cloudy
5:56 PM 44.1 °F 35.4 °F 32.0 °F 63% 30.08 in 10.0 mi West 21.9 mph 32.2 mph N/A   Scattered Clouds
6:56 PM 44.1 °F 35.9 °F 32.0 °F 63% 30.09 in 10.0 mi West 19.6 mph 24.2 mph N/A   Overcast
7:56 PM 44.1 °F 35.4 °F 30.9 °F 60% 30.10 in 10.0 mi West 21.9 mph - N/A   Overcast
8:56 PM 44.1 °F 36.2 °F 32.0 °F 63% 30.11 in 10.0 mi WNW 18.4 mph - N/A   Mostly Cloudy
9:56 PM 43.0 °F 36.4 °F 32.0 °F 65% 30.12 in 10.0 mi WNW 12.7 mph - N/A   Overcast
10:56 PM 42.1 °F 37.1 °F 30.9 °F 65% 30.14 in 10.0 mi NW 8.1 mph - N/A   Overcast
11:56 PM 37.9 °F - 28.9 °F 70% 30.15 in 10.0 mi Calm Calm - N/A   Mostly Cloudy